Flag for Saudi Arabia Weather past 2 weeks in Makkah, Saudi Arabia

Now
91 °F

Scattered clouds.


Feels Like: 97 °F
Forecast: 71 / 88 °F
Wind: 5 mph from Southwest

Location: Mecca Airport

Current Time: Dec 20, 2014 at 4:27:52 PM

Latest Report: Dec 20, 2014 at 3:00 PM


Visibility: N/A

Pressure: 29.92 "Hg

Humidity: 49%

Dew point: 70 °F

Location of MakkahLocation

Historic Weather in Makkah — Graph

°F

Makkah temperature yesterday

Maximum temperature yesterday: 91 °F (at 2:00 PM)
Minimum temperature yesterday: 73 °F (at 6:00 AM)
Average temperature yesterday: 82 °F

Past Weeks' High & Low Weather Summary

 TemperatureHumidityPressure
High95 °F (Dec 5, 3:00 PM)94% (Dec 11, 8:00 AM)30.04 "Hg (Dec 11, 8:00 AM)
Low70 °F (Dec 9, 7:00 AM)36% (Dec 6, 3:00 PM)29.83 "Hg (Dec 7, 3:00 PM)
Average82 °F66%29.94 "Hg
* Reported Dec 5 3:00 PM — Dec 20 3:00 PM, Makkah, Weather by CustomWeather, © 2014

Note: Actual official high and low records may vary slightly from our data, if they occured in-between our weather recording intervals... More about our weather records

Advertising

Makkah weather history for previous 24 hours

 ConditionsComfort  
Time TempWeatherWind HumidityBarometerVisibility
3:00 PM
Dec 20
91 °FScattered clouds.5 mph49%29.92 "HgN/A
2:00 PM91 °FScattered clouds.5 mph49%29.92 "HgN/A
1:00 PM90 °FScattered clouds.5 mph55%29.92 "HgN/A
12:00 PM88 °FScattered clouds.3 mph59%29.98 "HgN/A
11:00 AM86 °FPassing clouds.No wind59%30.01 "HgN/A
10:00 AM81 °FSunny.No wind74%30.01 "Hg10 mi
9:00 AM77 °FSunny.No wind79%30.01 "Hg10 mi
8:00 AM75 °FSunny.No wind83%30.01 "Hg10 mi
7:00 AM75 °FSunny.No wind89%29.98 "Hg10 mi
6:00 AM75 °FClear.No wind89%29.95 "Hg10 mi
5:00 AM75 °FClear.No wind89%29.95 "Hg10 mi
4:00 AM77 °FClear.No wind83%29.95 "Hg10 mi
3:00 AM77 °FClear.No wind83%29.98 "Hg10 mi
2:00 AM77 °FClear.No wind83%29.98 "Hg10 mi
1:00 AM77 °FPassing clouds.No wind89%29.98 "HgN/A
12:00 AM79 °FClear.No wind84%29.98 "Hg10 mi
11:00 PM
Dec 19
79 °FClear.No wind79%29.98 "Hg10 mi
10:00 PM81 °FPassing clouds.No wind74%30.01 "HgN/A
9:00 PM81 °FPassing clouds.2 mph70%30.01 "HgN/A
8:00 PM82 °FPassing clouds.2 mph66%29.98 "HgN/A
7:00 PM84 °FPassing clouds.2 mph62%29.98 "HgN/A
6:00 PM86 °FPassing clouds.2 mph59%29.95 "HgN/A
5:00 PM90 °FPassing clouds.No wind49%29.92 "HgN/A
4:00 PM91 °FPassing clouds.No wind46%29.92 "HgN/A
Weather by CustomWeather, © 2014

See weather overviewHow to use our weather pages